Meteo Giornale » Osservazioni meteo Stati Uniti (USA) » Syracuse Hancock
ore: 13:54 - Osservazioni Meteo Syracuse Hancock
Lat. 43° 6' N Lon. 76° 6' W Alt. 128 metri s.l.m.
25 °C
Molto Nuvoloso
Temp. 24 Ore
19 °C
25 °C
Nord/Nord-Est
9.3 Km/h
Dew point 21 °C
Umidità 78 %
Visibilità 10 Km
Il sole sorge alle ore 06:29
Il sole tramonta alle ore 19:39
| Data e Ora | Cielo e Fenomeni | T °C | DP °C | Um. % | Pres. hPa | Vis. km | Vento km/h | |
|---|---|---|---|---|---|---|---|---|
| Oggi h: 13:54 | Molto Nuvoloso | 25 | 21 | 78 | 1014 | 10 | N/NE 9.3 | |
| Oggi h: 12:54 | Coperto | 25 | 21 | 78 | 1014 | 10 | N 5.5 | |
| Oggi h: 11:54 | Molto Nuvoloso | 23 | 21 | 88 | 1014 | 10 | N 5.5 | |
| Oggi h: 10:54 | Coperto | 21 | 20 | 94 | 1014 | 10 | E 13 | |
| Oggi h: 09:54 | Coperto | 21 | 19 | 88 | 1014 | 10 | E/NE 7.4 | |
| Oggi h: 08:54 | Coperto | 20 | 19 | 93 | 1014 | 13 | E/NE 9.3 | |
| Oggi h: 08:03 | Coperto | 19 | 19 | 100 | 1014 | 11 | E 11.1 | |
| Oggi h: 07:54 | Foschia | 19 | 19 | 100 | 1014 | 3 | E 11.1 | |
| Oggi h: 06:54 | Coperto | 19 | 19 | 100 | 1014 | 3 | E 9.3 | |
| Oggi h: 06:25 | Coperto | 19 | 19 | 100 | 1014 | 2 | E 13 | |
| Oggi h: 06:06 | Foschia | 19 | 19 | 100 | 1014 | 10 | E 11.1 | |
| Oggi h: 05:54 | Pioggia | 19 | 19 | 100 | 1014 | 11 | E 9.3 | |
| Oggi h: 04:54 | Coperto | 19 | 19 | 100 | 1014 | 13 | E/NE 7.4 | |
| Oggi h: 04:12 | Coperto | 19 | 19 | 100 | 1014 | 13 | N 5.5 | |
| Oggi h: 03:54 | Pioggia | 19 | 19 | 100 | 1015 | 11 | N 0 | |
| Oggi h: 03:40 | Foschia | 19 | 19 | 100 | 1015 | 10 | SE 7.4 | |
| Oggi h: 03:28 | Pioggia Foschia | 19 | 19 | 100 | 1015 | 2 | N 5.5 | |
| Oggi h: 03:19 | Pioggia Foschia | 19 | 19 | 100 | 1015 | 5 | N 5.5 | |
| Oggi h: 02:54 | Pioggia | 19 | 18 | 93 | 1015 | 13 | N 5.5 | |
| Oggi h: 02:08 | Pioviggine Foschia | 19 | 18 | 93 | 1015 | 6 | E 7.4 | |
| Oggi h: 01:54 | Pioviggine Foschia | 19 | 18 | 93 | 1016 | 2 | N 5.5 | |
| Oggi h: 01:03 | Pioggia Foschia | 19 | 18 | 93 | 1016 | 10 | E 7.4 | |
| Oggi h: 00:54 | Pioggia Foschia | 19 | 18 | 93 | 1016 | 8 | E 11.1 | |
| Ieri h: 23:54 | Pioggia Foschia | 19 | 18 | 93 | 1016 | 6 | N 0 | |
| Ieri h: 22:54 | Coperto | 19 | 18 | 93 | 1016 | 10 | N 5.5 | |
| Ieri h: 21:54 | Coperto | 19 | 18 | 93 | 1017 | 10 | E 7.4 | |
| Ieri h: 20:54 | Pioggia | 19 | 18 | 93 | 1017 | 13 | E 7.4 | |
| Ieri h: 19:54 | Coperto | 20 | 18 | 88 | 1016 | 10 | E 7.4 | |
| Ieri h: 18:54 | Coperto | 21 | 18 | 82 | 1017 | 10 | E 7.4 | |
| Ieri h: 16:54 | Coperto | 20 | 18 | 88 | 1018 | 10 | E/SE 9.3 | |
| Ieri h: 15:54 | Coperto | 20 | 18 | 88 | 1018 | 10 | E/NE 13 | |
| Ieri h: 15:08 | Coperto | 20 | 18 | 88 | 1018 | 10 | E/NE 11.1 | |
| Ieri h: 14:54 | Coperto | 21 | 17 | 77 | 1018 | 10 | E 13 | |



